Location: Mahannah Oil Field
(37.4664°N, 96.6003°W)
Time: 01:38:29
(UTC+00:00)

Tiros 1 despin weight - Pass Details

Date: 01 February 2021
Orbit: 593 x 642 km, 48.2° (Epoch: 25 February)

Event Time Altitude Azimuth Distance (km) Brightness Sun altitude
Rises 20:29:05 0° 296° (WNW) 2,905 ? 29.9°
Reaches altitude 10° 20:31:55 10° 313° (NW) 1,988 ? 29.6°
Maximum altitude 20:35:23 21° 2° (N) 1,400 ? 29.3°
Drops below altitude 10° 20:38:48 10° 52° (NE) 1,963 ? 28.9°
Sets 20:41:35 0° 69° (ENE) 2,857 ? 28.6°
